Regional Weather Roundup
Issued by NWS

Home | Current Version | Previous Version | Graphics & Text | Print | Product List | Glossary On
Versions: 1 2 3 4 5 6 7 8 9 10 11 12 13 14 15 16 17 18 19 20 21 22 23 24 25 26 27 28 29 30 31 32 33 34 35 36 37 38 39 40 41 42 43 44 45 46 47 48 49 50
000
ASUS43 KMPX 192310
RWRMN
WEATHER ROUNDUP FOR MINNESOTA
NATIONAL WEATHER SERVICE TWIN CITIES/CHANHASSEN MN
600 PM CDT WED JUL 19 2017


NOTE: "FAIR" INDICATES FEW OR NO CLOUDS BELOW 12,000 FEET WITH NO
SIGNIFICANT WEATHER AND/OR OBSTRUCTIONS TO VISIBILITY. N/A MEANS
CURRENT SKY AND/OR WEATHER CONDITIONS ARE NOT AVAILABLE.

MNZ060>063-068>070-200000-
   Twin Cities Metro

CITY           SKY/WX    TMP DP  RH WIND       PRES   REMARKS
TWIN CITIES    CLOUDY    68  64  87 SE6       29.88F
ST PAUL        CLOUDY    67  66  97 SE6       29.89F
CRYSTAL        CLOUDY    70  61  73 SE10      29.87F
BLAINE         PTSUNNY   72  64  78 SE9       29.88F
LAKEVILLE      CLOUDY    64  64 100 CALM      29.93R
EDEN PRAIRIE   CLOUDY    69  66  90 S8        29.89F
SOUTH ST PAUL  CLOUDY    67  65  94 SE3       29.89F
LAKE ELMO      FAIR      66  64  94 SE5       29.90F
$$
MNZ001>005-007-008-013>017-022>024-027-028-200000-
   Northwest Minnesota

CITY           SKY/WX    TMP DP  RH WIND       PRES   REMARKS
BEMIDJI        SUNNY     79  60  50 W9        29.92F
HALLOCK        CLOUDY    79  66  65 S8        29.85F
ROSEAU         CLOUDY    77  64  65 SW12      29.86F
WARROAD        CLOUDY    75  64  69 S7        29.87F
THIEF RVR FALL SUNNY     78  65  63 SW14      29.89F
CROOKSTON      SUNNY     81  66  61 SW12      29.89F
FOSSTON        MOSUNNY   81  63  54 SW10      29.92F
DETROIT LAKES  CLOUDY    73  63  68 CALM      29.94S
MOORHEAD       CLOUDY    81  66  61 W3        29.91F
PARK RAPIDS    CLOUDY    79  61  53 S9        29.93F
MAHNOMEN       FAIR      78  65  64 W9        29.92S
$$
MNZ006-009>011-018-025>026-200000-
   North Central Minnesota

CITY           SKY/WX    TMP DP  RH WIND       PRES   REMARKS
BAUDETTE       CLOUDY    73  60  63 S9        29.87F
FLAG ISLAND    MOSUNNY   72  63  73 S10       29.86F
INTL FALLS     CLOUDY    71  60  68 SE6       29.90F
WASKISH        CLOUDY    77  61  57 SW6       29.90F
BIG FORK       CLOUDY    77  59  53 SW8       29.93F
LONGVILLE      SUNNY     79  54  41 S12       29.93F
GRAND RAPIDS   SUNNY     77  56  48 S12       29.94F
CRANE LAKE     CLOUDY    68  66  94 CALM      29.95F
ORR            MOSUNNY   73  55  53 S3        29.91F
COOK           CLOUDY    72  61  68 CALM      29.95S
WALKER         FAIR      79  58  49 SW8       29.92F
$$
MNZ012-019>021-037-200000-
   Northeast Minnesota

CITY           SKY/WX    TMP DP  RH WIND       PRES   REMARKS
DULUTH         CLOUDY    74  61  63 SE7       29.94F
ELY            CLOUDY    73  55  53 S6        29.95F
HIBBING        CLOUDY    73  58  59 S10       29.93F
EVELETH        CLOUDY    78  50  37 S6        29.95F
TWO HARBORS    CLOUDY    75  66  73 E3        29.93F
SILVER BAY     CLOUDY    73  63  68 E3        29.93F
GRAND MARAIS     N/A     66  53  63 CALM      29.96F
G MARAIS ARPRT CLOUDY    64  55  72 CALM      30.01F
$$
MNZ029>031-032-039>041-046>048-054>057-064-200000-
   West Central Minnesota

CITY           SKY/WX    TMP DP  RH WIND       PRES   REMARKS
FERGUS FALLS   SUNNY     79  66  65 CALM      29.89F
WHEATON        MOSUNNY   77  66  69 S8        29.89F
MORRIS         SUNNY     79  66  65 S10       29.87F
ALEXANDRIA     PTSUNNY   75  64  68 S3        29.93S
ELBOW LAKE     FAIR      76  67  73 W5        29.91S
WADENA         SUNNY     79  63  57 CALM      29.92S
GLENWOOD       SUNNY     75  64  69 S7        29.92R
APPLETON       SUNNY     79  64  61 SE10      29.88S
BENSON         SUNNY     79  64  61 S10       29.90F
ORTONVILLE     SUNNY     77  66  69 SE7       29.88F
MADISON        SUNNY     79  70  73 S9        29.88F
WILLMAR        FAIR      75  66  73 SE9       29.91F
$$
MNZ033>034-036-042>043-049>051-058-059-200000-
   Central Minnesota

CITY           SKY/WX    TMP DP  RH WIND       PRES   REMARKS
ST CLOUD       CLOUDY    76  62  62 SE10      29.89S
SAUK CENTRE    FAIR      76  62  63 SE7       29.91S
PAYNESVILLE    CLOUDY    76  62  62 SE9       29.91S
AITKIN         SUNNY     73  57  56 S6        29.92F
PINE RIVER     CLOUDY    75  61  60 S6        29.96F
BRAINERD       CLOUDY    77  60  55 S10       29.93F
STAPLES        SUNNY     79  63  57 S6        29.92F
LONG PRAIRIE   FAIR      73  61  64 E5        29.93R
LITTLE FALLS   CLOUDY    77  59  53 SE6       29.92F
LITCHFIELD     CLOUDY    73  66  78 SE6       29.90F
BUFFALO        CLOUDY    70  63  78 SE7       29.90F
MAPLE LAKE     CLOUDY    73  65  75 SE7       29.91S
HUTCHINSON     CLOUDY    72  68  88 SE7       29.90F
$$
MNZ037-044-045-052-053-200000-
   East Central Minnesota

CITY           SKY/WX    TMP DP  RH WIND       PRES   REMARKS
PRINCETON      CLOUDY    77  61  57 SE10G17   29.91S
MORA           CLOUDY    75  59  57 E6        29.95R
CAMBRIDGE      CLOUDY    79  61  53 SE8G16    29.89S
RUSH CITY      RAIN      75  61  62 SE5       29.93R
MOOSE LAKE     CLOUDY    79  59  50 SE3       29.92S
HINCKLEY       FAIR      77  61  57 SE7       29.94R
CLOQUET        SUNNY     77  52  41 S7        29.94F
MCGREGOR       SUNNY     79  55  44 S10       29.94F
$$
MNZ071>073-080-081-089-090-097-098-200000-
   Southwest Minnesota

CITY           SKY/WX    TMP DP  RH WIND       PRES   REMARKS
MONTEVIDEO     CLOUDY    81  70  69 SW13      29.89F
GRANITE FALLS  CLOUDY    77  69  76 SE10      29.90F
CANBY          SUNNY     78  68  72 E3        29.90F
MARSHALL       CLOUDY    77  70  79 SE13      29.89F
REDWOOD FALLS  CLOUDY    75  67  76 SE14      29.90F
OLIVIA         CLOUDY    73  68  83 S15       29.89F
PIPESTONE      SUNNY     82  70  65 SE10      29.91R
WINDOM         CLOUDY    75  68  78 E6        29.91F
JACKSON        CLOUDY    73  64  73 CALM      29.93F
TRACY          CLOUDY    75  70  83 SE9       29.90F
SLAYTON        HVY RAIN  74  67  77 E7        29.93F
$$
MNZ065>067-074>077-082>085-091>093-200000-
   South Central Minnesota

CITY           SKY/WX    TMP DP  RH WIND       PRES   REMARKS
MANKATO        CLOUDY    69  67  93 E9        29.93F
NEW ULM        CLOUDY    72  66  83 SE8       29.91F
ST JAMES       CLOUDY    72  68  88 SE7G18    29.92F
FAIRMONT       CLOUDY    72  69  90 SE8       29.93F
GLENCOE        CLOUDY    68  69 100 SE6       29.91S
OWATONNA       CLOUDY    68  66  94 S12       29.98R
WASECA         CLOUDY    68  64  88 S3        29.97S
ALBERT LEA     CLOUDY    66  66 100 CALM      29.97S
$$
MNZ078>079-086>088-094>096-200000-
   Southeast Minnesota

CITY           SKY/WX    TMP DP  RH WIND       PRES   REMARKS
ROCHESTER      LGT RAIN  67  66  97 S14G28    29.95F
RED WING       CLOUDY    70  66  88 SE12      29.88R
STANTON        CLOUDY    67  66  94 SW3       29.93R
DODGE CENTER   CLOUDY    66  64  94 SE8       29.99R
WINONA         TSTM      70  64  83 N20G37    30.06R
AUSTIN         TSTM      66  64  94 S7        29.97F
$$
ABBREVIATIONS USED IN REMARKS
   TC - TEMPERATURES IN CELSIUS
  WCI - WIND CHILL INDEX
   HX - HEAT INDEX
  VSB - VISIBILITY
$$




USA.gov is the U.S. government's official web portal to all federal, state and local government web resources and services.